TimeMDT,TemperatureF,Dew PointF,Humidity,Sea Level PressureIn,VisibilityMPH,Wind Direction,Wind SpeedMPH,Gust SpeedMPH,PrecipitationIn,Events,Conditions,WindDirDegrees,DateUTC
12:53 AM,60.1,10.0,14,29.94,10.0,NW,10.4,-,N/A,,Clear,310,2013-03-30 06:53:00
1:53 AM,57.9,7.0,13,29.94,10.0,NW,12.7,-,N/A,,Clear,310,2013-03-30 07:53:00
2:53 AM,55.9,10.0,16,29.94,10.0,NW,10.4,-,N/A,,Clear,310,2013-03-30 08:53:00
3:53 AM,53.1,9.0,17,29.95,10.0,NNW,8.1,-,N/A,,Clear,340,2013-03-30 09:53:00
4:53 AM,54.0,8.1,16,29.94,10.0,NW,10.4,-,N/A,,Clear,310,2013-03-30 10:53:00
5:53 AM,53.1,9.0,17,29.96,10.0,NW,10.4,-,N/A,,Clear,310,2013-03-30 11:53:00
6:53 AM,53.1,10.0,18,29.97,10.0,NW,8.1,-,N/A,,Clear,310,2013-03-30 12:53:00
7:53 AM,55.9,12.0,18,29.99,10.0,NW,6.9,-,N/A,,Clear,320,2013-03-30 13:53:00
8:53 AM,60.1,12.0,15,29.99,10.0,NNW,5.8,-,N/A,,Clear,330,2013-03-30 14:53:00
9:53 AM,63.0,12.9,14,29.99,10.0,North,4.6,-,N/A,,Clear,360,2013-03-30 15:53:00
10:53 AM,66.0,12.0,12,29.99,10.0,ENE,6.9,-,N/A,,Clear,70,2013-03-30 16:53:00
11:53 AM,69.1,12.0,11,29.97,10.0,Variable,3.5,-,N/A,,Clear,0,2013-03-30 17:53:00
12:53 PM,72.0,14.0,11,29.94,10.0,ESE,5.8,-,N/A,,Clear,110,2013-03-30 18:53:00
1:53 PM,73.0,10.9,9,29.91,10.0,South,9.2,-,N/A,,Clear,180,2013-03-30 19:53:00
2:53 PM,75.9,10.9,8,29.86,10.0,Variable,4.6,-,N/A,,Clear,0,2013-03-30 20:53:00
3:53 PM,75.0,16.0,11,29.86,10.0,West,16.1,21.9,N/A,,Mostly Cloudy,260,2013-03-30 21:53:00
4:53 PM,73.9,18.0,12,29.85,10.0,West,11.5,26.5,N/A,,Partly Cloudy,280,2013-03-30 22:53:00
5:53 PM,73.0,17.1,12,29.84,10.0,NW,10.4,16.1,N/A,,Scattered Clouds,320,2013-03-30 23:53:00
6:53 PM,72.0,17.1,12,29.84,10.0,West,9.2,-,N/A,,Mostly Cloudy,270,2013-03-31 00:53:00
7:53 PM,70.0,19.0,14,29.86,10.0,NW,9.2,-,N/A,,Scattered Clouds,310,2013-03-31 01:53:00
8:53 PM,69.1,19.0,15,29.87,10.0,WNW,11.5,-,N/A,,Clear,290,2013-03-31 02:53:00
9:53 PM,66.0,24.1,20,29.88,10.0,NW,12.7,-,N/A,,Partly Cloudy,320,2013-03-31 03:53:00
10:53 PM,64.9,25.0,22,29.88,10.0,NW,10.4,-,N/A,,Clear,310,2013-03-31 04:53:00
11:53 PM,63.0,26.1,25,29.89,10.0,North,6.9,-,N/A,,Scattered Clouds,360,2013-03-31 05:53:00